Weather WX

World > North America > United States > Missouri

Houston, Missouri Regional Weather

Lat: 37.33N, Lon: 91.96W
Wx Zone: MOZ082
Warning FLW WEATHER ALERT - (More Info. Click Here) Warning
Feedback

Houston, MO Regional Weather

Expires:201906251800;;061899
ASUS43 KLSX 251707
RWRMO 

WEATHER SUMMARY FOR MISSOURI
NATIONAL WEATHER SERVICE SPRINGFIELD MO
1200 PM CDT TUE JUN 25 2019

NOTE: "FAIR" INDICATES FEW OR NO CLOUDS BELOW 12,000 FEET WITH NO
       SIGNIFICANT WEATHER AND/OR OBSTRUCTIONS TO VISIBILITY.
       CURRENT SKY AND/OR WEATHER CONDITIONS ARE NOT AVAILABLE FOR
       CHILLICOTHE AND FARMINGTON.


MOZ072>076-082>087-097>100-106>115-251800-
...SOUTH CENTRAL AND SOUTHEAST MISSOURI...
  
CITY           SKY/WX    TMP DP  RH WIND       PRES   REMARKS
CAPE GIRARDEAU FAIR      83  59  44 W9        30.05S                  
FARMINGTON     SUNNY     81  64  56 S9        30.06S                  
POPLAR BLUFF   FAIR      82  66  58 SW7       30.06S                  
WEST PLAINS    SUNNY     79  63  57 SE6       30.08F                  
                                       
$$
  

SKY/WX - Weather  TMP - Temperature  DP - Dew Point  RH - Relative Humidity
WIND - Wind Direction/Speed PRES - Barometric Pressure VSB - Visibility
WCI - Wind Chill Index E13G22 Wind - East Wind 13 mph/Gusts of 22 mph